Regional Weather Roundup
Issued by NWS

Home | Current Version | Previous Version | Text Only | Print | Product List | Glossary On
Versions: 1 2 3 4 5 6 7 8 9 10 11 12 13 14 15 16 17 18 19 20 21 22 23 24 25 26 27 28 29 30 31 32 33 34 35 36 37 38 39 40 41 42 43 44 45 46 47 48 49 50
000
ASUS45 KTFX 241810
RWRMT
MONTANA REGIONAL WEATHER ROUNDUP
NATIONAL WEATHER SERVICE GREAT FALLS MT
1200 PM MDT FRI MAR 24 2017

NOTE: "FAIR" INDICATES FEW OR NO CLOUDS BELOW 12000 FEET WITH NO
SIGNIFICANT WEATHER AND/OR OBSTRUCTIONS TO VISIBILITY.

MTZ001>007-043-241900-
WEST OF THE DIVIDE

CITY           SKY/WX    TMP DP  RH WIND       PRES   REMARKS
KALISPELL      CLOUDY    38  26  62 CALM      29.91F
MISSOULA       PTSUNNY   41  29  62 CALM      29.94F
BUTTE          SUNNY     50  20  30 NE6       29.97F
MULLAN PASS    CLOUDY    32  28  85 VRB6      29.84S WCI  26
ANACONDA         N/A     54  16  22 S8        29.93F
DEER LODGE       N/A     54  19  26 SE16G22   29.94F
EUREKA           N/A     34  25  69 CALM      29.91F
HAMILTON         N/A     43  27  52 CALM      29.92F
PLAINS           N/A     42  30  62 CALM      29.91F
RONAN            N/A     41  30  65 W3        29.95F
$$

MTZ008-052>055-241900-
SOUTHWEST MONTANA

CITY           SKY/WX    TMP DP  RH WIND       PRES   REMARKS
BOZEMAN        SUNNY     51  27  39 VRB5      29.99F
DILLON         SUNNY     48  22  35 VRB3      29.99F
W YELLOWSTONE  SUNNY     37  19  48 S13G23    30.15F WCI  29
ENNIS          SUNNY     50  19  29 S30G39    30.07S
THREE FORKS      N/A     51  51 100 CALM      29.98F
$$

MTZ009-010-012-014-046-048-049-054-241900-
EAST SLOPES AND CENTRAL MONTANA

CITY           SKY/WX    TMP DP  RH WIND       PRES   REMARKS
CUT BANK       CLOUDY    41  23  48 SE13      29.88F
GREAT FALLS    MOSUNNY   56  20  24 S17G23    29.91F
HELENA         SUNNY     46  27  47 CALM      29.95F
AUGUSTA          N/A     48  19  32 S18       29.88F
BOWMANS CRNR     N/A     47  20  34 S26       29.87F
CHOTEAU          N/A     52  19  28 S15G23    29.90F
CONRAD           N/A     51  31  46 SE10      29.91F
FAIRFIELD        N/A     51  19  27 S18G24    29.89F
POWER            N/A     51  20  29 SW20      29.90F
RAYNESFORD       N/A     57  13  17 SW18G25   29.92F
$$

MTZ011-013-016-021-045-047-050-051-241900-
NORTH CENTRAL MONTANA

CITY           SKY/WX    TMP DP  RH WIND       PRES   REMARKS
HAVRE          SUNNY     53  27  36 E9        29.94F
LEWISTOWN      SUNNY     58  16  19 SW18      29.96F
N BAR RANCH      N/A     54  25  32 SW21G29   30.02F
CHINOOK          N/A     50  27  40 NE6       29.96F
DENTON           N/A     57  24  27 S28       29.90F
FORT BENTON      N/A     52  28  40 MISG      29.94F
GEYSER           N/A     54  21  27 CALM      29.92F
GRASS RANGE      N/A     58  23  26 S21G26    29.94F
STANFORD         N/A     55  16  20 S17       29.93F
WINIFRED         N/A     59  22  23 S13       29.94F
$$

MTZ017>020-022>027-061-062-241900-
NORTHEAST MONTANA

CITY           SKY/WX    TMP DP  RH WIND       PRES   REMARKS
GLASGOW        SUNNY     50  29  44 S8        30.04F
JORDAN           N/A     61  27  27 S15G25    30.02F
SIDNEY         SUNNY     52  40  63 E6        30.09
WOLF POINT     SUNNY     51  36  56 NE5       30.07F
MALTA          SUNNY     52  32  46 E9        30.00F
PLENTYWOOD       N/A     45  37  76 SE9       30.09S
POPLAR           N/A     50  36  57 E3        30.07F VSB 3/4
SCOBEY           N/A     51  33  50 E5        30.03F
$$

MTZ028>42-056>058-241900-
SOUTHCENTRAL AND SOUTHEAST MONTANA

CITY           SKY/WX    TMP DP  RH WIND       PRES   REMARKS
BAKER          MOSUNNY   57  34  41 N3        30.11F
BILLINGS       MOSUNNY   53  35  50 NE5       30.04F
LIVINGSTON     SUNNY     54  23  30 MISG      30.00F
MILES CITY     SUNNY     57  36  45 S7        30.08F
BIG TIMBER     SUNNY     50  23  34 CALM      30.04F
EKALAKA          N/A     56  25  30 E3        30.08S
FORSYTH          N/A     57  36  44 SE12G17   30.06F
HARLOWTON        N/A     50  26  39 SE13      30.00F
LAUREL           N/A     55  28  35 SE15      30.01F
$$

REGIONAL REPORTS...DAKOTAS

CITY           SKY/WX    TMP DP  RH WIND       PRES   REMARKS
WILLISTON      SUNNY     48  32  53 SE8       30.12F
MINOT          SUNNY     36  26  67 E10       30.20R WCI  28
DICKINSON      SUNNY     49  31  49 E5        30.11S
BEACH            N/A    N/A N/A N/A MISG        N/A
TIOGA            N/A     41  39  93 E10       30.14F
WATFORD CITY     N/A     48  34  57 SE9       30.11F
BISMARCK       SUNNY     40  31  70 E9        30.19S
GRAND FORKS    CLOUDY    34  29  82 N16       30.21R WCI  24
FARGO          CLOUDY    36  30  79 N13       30.19R WCI  27
BUFFALO SD       N/A     55  40  56 VRB3      30.06S
RAPID CITY     SUNNY     59  37  44 N21       30.10F
$$

REGIONAL REPORTS...WYOMING/IDAHO/WASHINGTON

CITY           SKY/WX    TMP DP  RH WIND       PRES   REMARKS
GILLETTE       SUNNY     53  30  41 SE3       30.13S
SHERIDAN       SUNNY     56  32  40 SE13      30.09F
BUFFALO WY     SUNNY     53  33  46 SE14      30.13F
CODY           SUNNY     53  20  27 S15G24    30.10F
YELLOWSTONE LA   N/A     38  19  46 VRB5      30.18F
IDAHO FALLS    SUNNY     51  24  34 S15       30.16F
SALMON         SUNNY     48  27  43 CALM      29.97F
BOISE          LGT RAIN  50  35  56 SE16G24   30.04R
SPOKANE        LGT RAIN  41  38  89 E3        29.86F
$$

REGIONAL REPORTS...ALBERTA

CITY           SKY/WX    TMP DP  RH WIND       PRES   REMARKS
EDMONTON       MOSUNNY   32  27  80 SE13      29.83S WCI  22
CALGARY        CLOUDY    41  23  48 S13G21    29.75F
LETHBRIDGE     CLOUDY    50  21  32 S16G23    29.84F
MEDICINE HAT   PTSUNNY   52  25  35 S14       29.88F
WATERTON GATE    N/A     48  21  34 SW16G28     N/A
CARDSTON         N/A     50  19  29 SE6         N/A
MILK RIVER       N/A     46  25  42 S24         N/A
ONEFOUR          N/A     45  23  42 SE12        N/A
$$

REGIONAL REPORTS...SASKATCHEWAN

CITY           SKY/WX    TMP DP  RH WIND       PRES   REMARKS
SWIFT CURRENT  SUNNY     48  34  57 SE10      29.96F
SASKATOON      PTSUNNY   37  25  60 E9        30.10F WCI  31
CYPRESS HILLS    N/A     43  18  36 S17G24      N/A
ROCKGLEN         N/A     52  36  54 S12         N/A
$$



USA.gov is the U.S. government's official web portal to all federal, state and local government web resources and services.